sat.trackr.live / text

‹ back to catalog

STARLINK-6262

NORAD 57091 · 2023-088AV

PAYLOAD ACTIVE UNKNOWN

§ Identity

Operator
Country
US
Launch date
2023-06-22
Launch site
AFWTR
Launch vehicle
Mass (kg)
RCS (m²)

Purposes: comms

External: N2YO · Heavens-Above · Gunter

§ Orbital elements

Epoch: 2026-05-24T22:27:15.115104Z

Period
94.27 min
Inclination
43.0062°
Eccentricity
0.0001313
Mean motion
15.27575222 rev/d
Perigee alt
482.2 km
Apogee alt
484.0 km
Semi-major
6,861.2 km
B*
3.2358e-5
RAAN
25.3120°
Arg perigee
262.7233°
Mean anomaly
97.3470°
Rev number
16,216

§ Raw data

STARLINK-62621 57091U 23088AV  26144.93559161  .00000628  00000+0  32358-4 0  99992 57091  43.0062  25.3120 0001313 262.7233  97.3470 15.27575222162169

JSON: /api/v1/satellites/57091 · /tle

For live sub-satellite position, see the globe view (requires WebGL).

§ Visibility from observer

Set your observer location to see the next 7 days of passes ≥ 10°. The values pass through the URL so the page stays shareable.

No JS? Fill the form by hand. The geolocation button needs JavaScript.